Change the Weather History Date:

Thursday, December 24, 2009

  Actual Average Record
Temperature  
Mean Temperature 36 °F -  
Max Temperature 41 °F 44 °F 60 °F (1991)
Min Temperature 32 °F 23 °F -5 °F (1983)
Degree Days  
Heating Degree Days 28    
Moisture  
Dew Point 27 °F    
Average Humidity 72    
Maximum Humidity 87    
Minimum Humidity 53    
Precipitation  
Precipitation 0.00 in - - ()
Sea Level Pressure  
Sea Level Pressure 30.17 in    
Wind  
Wind Speed 2 mph (SSE)    
Max Wind Speed 7 mph    
Max Gust Speed -    
Visibility 9 miles    
Events      
Averages and records for this station are not official NWS values.
T = Trace of Precipitation, MM = Missing Value Source: NWS Daily Summary

Daily Weather History Graph

Daily Weather History Graph

Search for Another Location

Airport or City:

Trip Planner

Search our weather history database for the weather conditions in past years. The results will help you decide how hot, cold, wet, or windy it might be!

Date:

Astronomy

Dec. 24, 2009 Rise Set
Actual Time 7:35 AM EST 5:15 PM EST
Civil Twilight 7:06 AM EST 5:44 PM EST
Nautical Twilight 6:34 AM EST 6:16 PM EST
Astronomical Twilight 6:02 AM EST 6:48 PM EST
Moon 11:57 AM EST (12/24) 12:02 AM EST (12/24)
Length of Visible Light 10h 38m
Length of Day
9h 40m
Waxing Crescent, 50% of the Moon is Illuminated
Dec 24
Waxing Crescent
Dec 24
First Quarter
Dec 31
Full
Jan 7
Last Quarter
Jan 15
New

Hourly Weather History & Observations

Time (EST) Temp. Windchill Dew Point Humidity Pressure Visibility Wind Dir Wind Speed Gust Speed Precip Events Conditions
12:02 AM 35.6 °F - 28.4 °F 75% 30.18 in 10.0 mi Calm Calm - N/A   Overcast
12:20 AM 35.6 °F - 28.4 °F 75% 30.18 in 10.0 mi Calm Calm - N/A   Overcast
12:40 AM 37.4 °F - 28.4 °F 70% 30.17 in 10.0 mi Calm Calm - N/A   Overcast
1:00 AM 35.6 °F - 28.4 °F 75% 30.17 in 10.0 mi Calm Calm - N/A   Overcast
1:20 AM 33.8 °F - 28.4 °F 81% 30.16 in 10.0 mi Calm Calm - N/A   Overcast
1:40 AM 35.6 °F - 28.4 °F 75% 30.17 in 10.0 mi Calm Calm - N/A   Overcast
2:00 AM 35.6 °F - 28.4 °F 75% 30.17 in 10.0 mi Calm Calm - N/A   Overcast
2:20 AM 33.8 °F - 28.4 °F 81% 30.17 in 10.0 mi Calm Calm - N/A   Scattered Clouds
2:40 AM 33.8 °F - 28.4 °F 81% 30.18 in 10.0 mi Calm Calm - N/A   Scattered Clouds
3:00 AM 33.8 °F - 28.4 °F 81% 30.17 in 10.0 mi Calm Calm - N/A   Clear
3:22 AM 32.0 °F - 28.4 °F 87% 30.18 in 10.0 mi Calm Calm - N/A   Clear
3:40 AM 32.0 °F 28.7 °F 28.4 °F 87% 30.17 in 10.0 mi South 3.5 mph - N/A   Clear
4:00 AM 32.0 °F 28.7 °F 28.4 °F 87% 30.18 in 10.0 mi South 3.5 mph - N/A   Clear
4:20 AM 32.0 °F 28.7 °F 28.4 °F 87% 30.17 in 10.0 mi South 3.5 mph - N/A   Clear
4:40 AM 32.0 °F 28.7 °F 28.4 °F 87% 30.18 in 10.0 mi SSW 3.5 mph - N/A   Clear
5:00 AM 33.8 °F 30.8 °F 28.4 °F 81% 30.18 in 10.0 mi South 3.5 mph - N/A   Clear
5:20 AM 33.8 °F 30.8 °F 28.4 °F 81% 30.18 in 10.0 mi SSE 3.5 mph - N/A   Clear
5:40 AM 33.8 °F 29.6 °F 28.4 °F 81% 30.18 in 7.0 mi South 4.6 mph - N/A   Clear
6:00 AM 32.0 °F 28.7 °F 28.4 °F 87% 30.18 in 7.0 mi SSE 3.5 mph - N/A   Clear
6:20 AM 32.0 °F 28.7 °F 28.4 °F 87% 30.19 in 7.0 mi South 3.5 mph - N/A   Clear
6:40 AM 32.0 °F 28.7 °F 28.4 °F 87% 30.20 in 7.0 mi South 3.5 mph - N/A   Clear
7:00 AM 32.0 °F 28.7 °F 28.4 °F 87% 30.20 in 7.0 mi South 3.5 mph - N/A   Clear
7:20 AM 32.0 °F - 28.4 °F 87% 30.21 in 5.0 mi Calm Calm - N/A   Clear
7:40 AM 32.0 °F - 26.6 °F 80% 30.21 in 4.0 mi Calm Calm - N/A   Haze
8:00 AM 32.0 °F 28.7 °F 26.6 °F 80% 30.21 in 4.0 mi SSE 3.5 mph - N/A   Clear
8:20 AM 32.0 °F 28.7 °F 26.6 °F 80% 30.23 in 4.0 mi SSE 3.5 mph - N/A   Haze
8:40 AM 32.0 °F 28.7 °F 26.6 °F 80% 30.23 in 4.0 mi SSE 3.5 mph - N/A   Haze
9:00 AM 32.0 °F 28.7 °F 26.6 °F 80% 30.23 in 4.0 mi SSE 3.5 mph - N/A   Haze
9:40 AM 33.8 °F 30.8 °F 28.4 °F 81% 30.24 in 5.0 mi South 3.5 mph - N/A   Haze
10:00 AM 33.8 °F 29.6 °F 28.4 °F 81% 30.24 in 5.0 mi South 4.6 mph - N/A   Haze
10:20 AM 35.6 °F - 26.6 °F 70% 30.25 in 7.0 mi Calm Calm - N/A   Clear
10:40 AM 35.6 °F 31.7 °F 26.6 °F 70% 30.24 in 10.0 mi SE 4.6 mph - N/A   Clear
11:00 AM 37.4 °F 33.8 °F 26.6 °F 65% 30.24 in 10.0 mi SSE 4.6 mph - N/A   Clear
11:20 AM 37.4 °F 33.8 °F 26.6 °F 65% 30.23 in 10.0 mi SE 4.6 mph - N/A   Clear
11:40 AM 39.2 °F 35.9 °F 26.6 °F 61% 30.23 in 10.0 mi SSE 4.6 mph - N/A   Clear
12:00 PM 39.2 °F 35.0 °F 26.6 °F 61% 30.21 in 10.0 mi SSE 5.8 mph - N/A   Clear
12:20 PM 39.2 °F 35.0 °F 26.6 °F 61% 30.20 in 10.0 mi SE 5.8 mph - N/A   Clear
12:40 PM 39.2 °F 34.2 °F 26.6 °F 61% 30.18 in 10.0 mi SSE 6.9 mph - N/A   Clear
1:00 PM 41.0 °F 38.0 °F 24.8 °F 53% 30.17 in 10.0 mi SE 4.6 mph - N/A   Clear
1:21 PM 41.0 °F 37.1 °F 26.6 °F 57% 30.16 in 10.0 mi SE 5.8 mph - N/A   Clear
1:40 PM 41.0 °F 37.1 °F 26.6 °F 57% 30.15 in 10.0 mi SE 5.8 mph - N/A   Clear
2:00 PM 41.0 °F 38.0 °F 24.8 °F 53% 30.14 in 10.0 mi SE 4.6 mph - N/A   Clear
2:20 PM 41.0 °F 38.0 °F 24.8 °F 53% 30.13 in 10.0 mi SSE 4.6 mph - N/A   Clear
2:40 PM 41.0 °F 39.0 °F 24.8 °F 53% 30.12 in 10.0 mi SE 3.5 mph - N/A   Clear
3:00 PM 41.0 °F 39.0 °F 24.8 °F 53% 30.11 in 10.0 mi SE 3.5 mph - N/A   Clear
3:20 PM 41.0 °F 39.0 °F 24.8 °F 53% 30.12 in 10.0 mi SE 3.5 mph - N/A   Clear
4:00 PM 39.2 °F 35.9 °F 24.8 °F 56% 30.13 in 10.0 mi SSE 4.6 mph - N/A   Clear
4:20 PM 37.4 °F 33.8 °F 24.8 °F 60% 30.13 in 10.0 mi SSE 4.6 mph - N/A   Clear
4:41 PM 37.4 °F 33.8 °F 26.6 °F 65% 30.13 in 10.0 mi SSE 4.6 mph - N/A   Clear
5:04 PM 35.6 °F 30.7 °F 26.6 °F 70% 30.14 in 7.0 mi SSE 5.8 mph - N/A   Clear
5:20 PM 35.6 °F 30.7 °F 26.6 °F 70% 30.15 in 7.0 mi SSE 5.8 mph - N/A   Clear
5:40 PM 35.6 °F 32.8 °F 26.6 °F 70% 30.16 in 10.0 mi SSE 3.5 mph - N/A   Scattered Clouds
6:01 PM 35.6 °F 32.8 °F 26.6 °F 70% 30.15 in 10.0 mi SE 3.5 mph - N/A   Overcast
6:20 PM 35.6 °F 32.8 °F 26.6 °F 70% 30.15 in 10.0 mi SSE 3.5 mph - N/A   Overcast
6:40 PM 35.6 °F 32.8 °F 26.6 °F 70% 30.14 in 10.0 mi SSE 3.5 mph - N/A   Overcast
7:00 PM 35.6 °F 32.8 °F 26.6 °F 70% 30.14 in 10.0 mi South 3.5 mph - N/A   Overcast
7:20 PM 35.6 °F 31.7 °F 26.6 °F 70% 30.14 in 10.0 mi South 4.6 mph - N/A   Overcast
7:40 PM 35.6 °F 32.8 °F 24.8 °F 65% 30.13 in 10.0 mi SSE 3.5 mph - N/A   Overcast
8:00 PM 35.6 °F 30.7 °F 24.8 °F 65% 30.14 in 10.0 mi SSE 5.8 mph - N/A   Overcast
8:20 PM 33.8 °F 29.6 °F 24.8 °F 70% 30.13 in 10.0 mi SE 4.6 mph - N/A   Overcast
8:40 PM 33.8 °F 28.6 °F 24.8 °F 70% 30.12 in 10.0 mi SSE 5.8 mph - N/A   Overcast
9:00 PM 33.8 °F 30.8 °F 24.8 °F 70% 30.13 in 10.0 mi SSE 3.5 mph - N/A   Overcast
9:23 PM 33.8 °F - 24.8 °F 70% 30.14 in 7.0 mi Calm Calm - N/A   Overcast
9:40 PM 32.0 °F 25.6 °F 24.8 °F 75% 30.13 in 7.0 mi SSE 6.9 mph - N/A   Overcast
10:00 PM 32.0 °F 25.6 °F 23.0 °F 69% 30.13 in 7.0 mi SSE 6.9 mph - N/A   Overcast
10:20 PM 32.0 °F 27.5 °F 26.6 °F 80% 30.14 in 5.0 mi SSE 4.6 mph - N/A   Overcast
10:40 PM 30.2 °F 26.7 °F 26.6 °F 86% 30.14 in 3.0 mi SSE 3.5 mph - 0.01 in   Overcast
11:00 PM 30.2 °F 26.7 °F 24.8 °F 80% 30.13 in 7.0 mi SE 3.5 mph - N/A   Overcast
11:20 PM 30.2 °F 26.7 °F 24.8 °F 80% 30.12 in 10.0 mi SSE 3.5 mph - N/A   Overcast
11:40 PM 30.2 °F 26.7 °F 24.8 °F 80% 30.11 in 5.0 mi SE 3.5 mph - N/A   Overcast